Home   Weather   Aliso Viejo   Past weeks

Flag for USA Past Weather in Aliso Viejo, California, USA — Yesterday and Last 2 Weeks

Now
67 °F

Passing clouds.


Feels Like: 67 °F
Forecast: 63 / 80 °F
Wind: No wind

Location: John Wayne Airport-Orange County Airport

Current Time: Oct 1, 2016 at 7:01:11 AM

Latest Report: Oct 1, 2016 at 5:53 AM


Visibility: 10 mi

Pressure: 29.96 "Hg

Humidity: 73%

Dew Point: 58 °F

Location of Aliso ViejoLocation

Past Weather in Aliso Viejo — Graph

°F

Aliso Viejo Temperature Yesterday

Maximum temperature yesterday: 84 °F (at 1:53 PM)
Minimum temperature yesterday: 68 °F (at 5:53 AM)
Average temperature yesterday: 74 °F

High & Low Weather Summary for the Past Weeks

 TemperatureHumidityPressure
High105 °F (Sep 26, 11:53 AM)97% (Sep 19, 6:53 AM)30.03 "Hg (Sep 19, 6:53 AM)
Low61 °F (Sep 16, 5:53 AM)8% (Sep 25, 12:53 PM)29.81 "Hg (Sep 27, 5:53 AM)
Average74 °F59%29.92 "Hg
* Reported Sep 16 5:53 AM — Oct 1 5:53 AM, Aliso Viejo, Weather by CustomWeather, © 2016

Note: Actual official high and low records may vary slightly from our data, if they occured in-between our weather recording intervals... More about our weather records

Advertising

Aliso Viejo Weather History for the Previous 24 Hours

Scroll right to see more
 ConditionsComfort  
Time TempWeatherWind HumidityBarometerVisibility
5:53 AM
Sat, Oct 1
67 °FPassing clouds.No wind73%29.96 "Hg10 mi
4:53 AM67 °FClear.No wind76%29.97 "Hg10 mi
3:53 AM68 °FClear.No wind73%29.96 "Hg10 mi
2:53 AM69 °FClear.No wind79%29.97 "Hg10 mi
1:53 AM69 °FClear.No wind76%29.98 "Hg10 mi
12:53 AM68 °FClear.5 mph87%29.98 "Hg10 mi
11:53 PM
Fri, Sep 30
69 °FClear.6 mph87%29.97 "Hg9 mi
10:53 PM69 °FClear.7 mph84%29.96 "Hg9 mi
9:53 PM71 °FClear.3 mph76%29.95 "Hg10 mi
8:53 PM73 °FClear.5 mph66%29.95 "Hg10 mi
7:53 PM73 °FClear.3 mph69%29.93 "Hg10 mi
6:53 PM75 °FClear.5 mph60%29.92 "Hg10 mi
5:53 PM77 °FPassing clouds.7 mph52%29.92 "Hg10 mi
4:53 PM80 °FPassing clouds.10 mph45%29.92 "Hg10 mi
3:53 PM82 °FPassing clouds.9 mph44%29.94 "Hg10 mi
2:53 PM83 °FPassing clouds.9 mph44%29.95 "Hg10 mi
1:53 PM84 °FPassing clouds.9 mph45%29.96 "Hg10 mi
12:53 PM82 °FPassing clouds.8 mph49%29.99 "Hg10 mi
11:53 AM82 °FPassing clouds.7 mph48%30.01 "Hg10 mi
10:53 AM80 °FPassing clouds.5 mph52%30.03 "Hg10 mi
9:53 AM77 °FPassing clouds.5 mph60%30.03 "Hg10 mi
8:53 AM75 °FPassing clouds.No wind64%30.03 "Hg10 mi
7:53 AM70 °FPassing clouds.No wind79%30.02 "Hg10 mi
Weather by CustomWeather, © 2016

See weather overviewHow to use our weather pages